TimeICT,TemperatureF,Dew PointF,Humidity,Sea Level PressureIn,VisibilityMPH,Wind Direction,Wind SpeedMPH,Gust SpeedMPH,PrecipitationIn,Events,Conditions,WindDirDegrees,DateUTC
12:00 AM,77.0,75.2,94,29.86,6.2,Calm,Calm,-,N/A,,Mostly Cloudy,0,2013-10-16 17:00:00
12:30 AM,77.0,75.2,94,29.83,6.2,Calm,Calm,-,N/A,,Mostly Cloudy,0,2013-10-16 17:30:00
1:00 AM,77,74,90,29.83,6,Calm,Calm,,,,Scattered Clouds,,2013-10-16 18:00:00
1:00 AM,77.0,75.2,94,29.83,6.2,Calm,Calm,-,N/A,,Mostly Cloudy,0,2013-10-16 18:00:00
1:30 AM,77.0,75.2,94,29.80,6.2,Calm,Calm,-,N/A,,Mostly Cloudy,0,2013-10-16 18:30:00
2:00 AM,77.0,73.4,89,29.80,6.2,SW,2.3,-,N/A,,Mostly Cloudy,230,2013-10-16 19:00:00
2:30 AM,77.0,73.4,89,29.80,6.2,Calm,Calm,-,N/A,,Mostly Cloudy,0,2013-10-16 19:30:00
3:00 AM,75.2,73.4,94,29.80,6.2,WNW,3.5,-,N/A,,Mostly Cloudy,300,2013-10-16 20:00:00
3:30 AM,75.2,73.4,94,29.80,6.2,ESE,2.3,-,N/A,,Mostly Cloudy,120,2013-10-16 20:30:00
4:00 AM,75.2,73.4,94,29.80,6.2,Calm,Calm,-,N/A,,Mostly Cloudy,0,2013-10-16 21:00:00
4:30 AM,75.2,73.4,94,29.80,6.2,SE,2.3,-,N/A,,Mostly Cloudy,130,2013-10-16 21:30:00
5:00 AM,75.2,73.4,94,29.80,5.6,Calm,Calm,-,N/A,,Mostly Cloudy,0,2013-10-16 22:00:00
5:30 AM,75.2,73.4,94,29.83,5.6,Calm,Calm,-,N/A,,Mostly Cloudy,0,2013-10-16 22:30:00
6:00 AM,75.2,73.4,94,29.83,5.6,Calm,Calm,-,N/A,,Scattered Clouds,0,2013-10-16 23:00:00
6:30 AM,75.2,73.4,94,29.83,6.2,Calm,Calm,-,N/A,,Scattered Clouds,0,2013-10-16 23:30:00
7:00 AM,75,74,94,29.84,6,SW,3.5,,,,Scattered Clouds,230,2013-10-17 00:00:00
7:00 AM,75.2,73.4,94,29.86,6.2,SW,3.5,-,N/A,,Mostly Cloudy,230,2013-10-17 00:00:00
7:30 AM,77.0,73.4,89,29.86,6.2,SW,3.5,-,N/A,,Mostly Cloudy,230,2013-10-17 00:30:00
8:00 AM,78.8,75.2,89,29.86,6.2,South,2.3,-,N/A,,Scattered Clouds,180,2013-10-17 01:00:00
8:30 AM,82.4,75.2,79,29.86,6.2,SW,6.9,-,N/A,,Scattered Clouds,230,2013-10-17 01:30:00
9:00 AM,86.0,77.0,74,29.86,6.2,South,3.5,-,N/A,,Scattered Clouds,180,2013-10-17 02:00:00
9:30 AM,86.0,75.2,70,29.86,6.2,Calm,Calm,-,N/A,,Scattered Clouds,0,2013-10-17 02:30:00
10:00 AM,87.8,75.2,66,29.86,6.2,West,4.6,-,N/A,,Scattered Clouds,260,2013-10-17 03:00:00
10:30 AM,87.8,73.4,62,29.86,6.2,NNW,3.5,-,N/A,,Scattered Clouds,330,2013-10-17 03:30:00
11:00 AM,87.8,69.8,55,29.83,6.2,WNW,3.5,-,N/A,,Scattered Clouds,290,2013-10-17 04:00:00
11:30 AM,91.4,71.6,52,29.83,6.2,SSW,4.6,-,N/A,,Scattered Clouds,200,2013-10-17 04:30:00
12:00 PM,91.4,73.4,55,29.80,6.2,East,4.6,-,N/A,,Scattered Clouds,100,2013-10-17 05:00:00
12:30 PM,91.4,71.6,52,29.80,6.2,East,5.8,-,N/A,,Scattered Clouds,90,2013-10-17 05:30:00
1:00 PM,92,72,43,29.79,6,East,3.5,,,,Scattered Clouds,90,2013-10-17 06:00:00
1:00 PM,93.2,71.6,49,29.77,6.2,East,3.5,-,N/A,,Scattered Clouds,90,2013-10-17 06:00:00
1:30 PM,91.4,69.8,49,29.74,6.2,WSW,4.6,-,N/A,,Mostly Cloudy,240,2013-10-17 06:30:00
2:00 PM,93.2,73.4,52,29.74,6.2,NE,3.5,-,N/A,,Mostly Cloudy,40,2013-10-17 07:00:00
2:30 PM,91.4,73.4,55,29.74,6.2,ENE,3.5,-,N/A,,Mostly Cloudy,60,2013-10-17 07:30:00
3:00 PM,91.4,73.4,55,29.71,6.2,NE,5.8,-,N/A,,Mostly Cloudy,40,2013-10-17 08:00:00
3:30 PM,89.6,73.4,59,29.71,6.2,NE,4.6,-,N/A,,Mostly Cloudy,50,2013-10-17 08:30:00
4:00 PM,86.0,73.4,66,29.71,6.2,SW,8.1,-,N/A,Rain,Light Rain,220,2013-10-17 09:00:00
4:30 PM,77.0,75.2,94,29.74,0.4,SSW,16.1,-,N/A,Rain,Rain,210,2013-10-17 09:30:00
5:00 PM,77.0,75.2,94,29.74,3.7,WSW,4.6,-,N/A,Rain,Rain,250,2013-10-17 10:00:00
5:30 PM,77.0,75.2,94,29.74,5.0,West,6.9,-,N/A,Rain,Light Rain,280,2013-10-17 10:30:00
6:00 PM,78.8,77.0,94,29.77,5.0,Calm,Calm,-,N/A,Rain,Light Rain,0,2013-10-17 11:00:00
6:30 PM,78.8,77.0,94,29.77,5.0,Calm,Calm,-,N/A,Rain,Light Rain,0,2013-10-17 11:30:00
7:00 PM,78,76,94,29.81,5,Calm,Calm,,,Rain,Light Rain,,2013-10-17 12:00:00
7:00 PM,78.8,77.0,94,29.80,5.0,Calm,Calm,-,N/A,Rain,Light Rain,0,2013-10-17 12:00:00
7:30 PM,78.8,77.0,94,29.80,3.7,West,3.5,-,N/A,Rain,Light Rain,270,2013-10-17 12:30:00
8:00 PM,78.8,75.2,89,29.83,3.7,Calm,Calm,-,N/A,Rain,Light Rain,0,2013-10-17 13:00:00
8:30 PM,77.0,75.2,94,29.86,5.0,Calm,Calm,-,N/A,Rain,Light Rain,0,2013-10-17 13:30:00
9:00 PM,77.0,75.2,94,29.86,6.2,SSE,2.3,-,N/A,,Mostly Cloudy,150,2013-10-17 14:00:00
9:30 PM,77.0,75.2,94,29.86,5.6,WNW,2.3,-,N/A,,Mostly Cloudy,300,2013-10-17 14:30:00
10:00 PM,77.0,75.2,94,29.89,5.6,South,2.3,-,N/A,,Mostly Cloudy,190,2013-10-17 15:00:00
10:30 PM,77.0,75.2,94,29.86,5.6,WSW,3.5,-,N/A,,Mostly Cloudy,250,2013-10-17 15:30:00
11:00 PM,77.0,75.2,94,29.89,5.0,SSE,2.3,-,N/A,,Mostly Cloudy,150,2013-10-17 16:00:00
11:30 PM,77.0,75.2,94,29.89,3.7,SSE,2.3,-,N/A,,Mostly Cloudy,150,2013-10-17 16:30:00